[keps] orb07061.amsat
Ray Hoad
r.hoad at att.net
Fri Mar 2 17:29:16 PST 2007
SB KEPS @ AMSAT $ORB07061.O
Orbital Elements 07061.OSCAR
HR AMSAT ORBITAL ELEMENTS FOR OSCAR SATELLITES
FROM WA5QGD FORT WORTH,TX March 2, 2007
Send SUBSCRIBE KEPS/UNSUBSCRIBE KEPS to majordomo at amsat.org only
BID: ORB07061.O
TO ALL RADIO AMATEURS BT
Satellite: AO-07
Catalog number: 07530
Epoch time: 07061.67971952
Element set: 818
Inclination: 101.5316 deg
RA of node: 102.7683 deg
Eccentricity: 0.0012154
Arg of perigee: 103.7715 deg
Mean anomaly: 256.4709 deg
Mean motion: 12.53572526 rev/day
Decay rate: -2.8e-07 rev/day^2
Epoch rev: 47777
Checksum: 305
Satellite: AO-10
Catalog number: 14129
Epoch time: 07060.71530705
Element set: 0362
Inclination: 026.8653 deg
RA of node: 289.0947 deg
Eccentricity: 0.6053965
Arg of perigee: 002.1531 deg
Mean anomaly: 359.7194 deg
Mean motion: 02.05869845 rev/day
Decay rate: -9.3e-07 rev/day^2
Epoch rev: 17835
Checksum: 318
Satellite: UO-11
Catalog number: 14781
Epoch time: 07061.47167068
Element set: 314
Inclination: 098.1990 deg
RA of node: 082.0688 deg
Eccentricity: 0.0009453
Arg of perigee: 149.4265 deg
Mean anomaly: 210.7511 deg
Mean motion: 14.79525010 rev/day
Decay rate: -1.38e-06 rev/day^2
Epoch rev: 23395
Checksum: 300
Satellite: RS-10/11
Catalog number: 18129
Epoch time: 07060.69064388
Element set: 0238
Inclination: 082.9285 deg
RA of node: 137.7073 deg
Eccentricity: 0.0013272
Arg of perigee: 094.5425 deg
Mean anomaly: 265.7245 deg
Mean motion: 13.72784812 rev/day
Decay rate: 4.4e-07 rev/day^2
Epoch rev: 98648
Checksum: 328
Satellite: RS-15
Catalog number: 23439
Epoch time: 07060.84304522
Element set: 0039
Inclination: 064.8161 deg
RA of node: 180.5152 deg
Eccentricity: 0.0162191
Arg of perigee: 209.6571 deg
Mean anomaly: 149.5080 deg
Mean motion: 11.27551861 rev/day
Decay rate: -3.9e-07 rev/day^2
Epoch rev: 50159
Checksum: 286
Satellite: FO-29
Catalog number: 24278
Epoch time: 07060.97187759
Element set: 0456
Inclination: 098.5355 deg
RA of node: 035.0779 deg
Eccentricity: 0.0351172
Arg of perigee: 001.2888 deg
Mean anomaly: 358.9074 deg
Mean motion: 13.52928842 rev/day
Decay rate: -7.0e-08 rev/day^2
Epoch rev: 52040
Checksum: 338
Satellite: SO-33
Catalog number: 25509
Epoch time: 07060.54661685
Element set: 0874
Inclination: 031.4307 deg
RA of node: 114.3240 deg
Eccentricity: 0.0355560
Arg of perigee: 206.3552 deg
Mean anomaly: 151.8577 deg
Mean motion: 14.28146145 rev/day
Decay rate: -1.78e-06 rev/day^2
Epoch rev: 43585
Checksum: 302
Satellite: AO-40
Catalog number: 26609
Epoch time: 07061.65006193
Element set: 845
Inclination: 004.8549 deg
RA of node: 169.5312 deg
Eccentricity: 0.7992893
Arg of perigee: 281.7200 deg
Mean anomaly: 007.3341 deg
Mean motion: 01.25586111 rev/day
Decay rate: 4.0e-07 rev/day^2
Epoch rev: 2910
Checksum: 287
Satellite: VO-52
Catalog number: 28650
Epoch time: 07060.36756119
Element set: 0567
Inclination: 097.8408 deg
RA of node: 133.4552 deg
Eccentricity: 0.0026230
Arg of perigee: 244.1024 deg
Mean anomaly: 115.7540 deg
Mean motion: 14.81272207 rev/day
Decay rate: 4.12e-06 rev/day^2
Epoch rev: 09845
Checksum: 286
Satellite: PO-63
Catalog number: 29712
Epoch time: 07061.80356559
Element set: 151
Inclination: 097.9347 deg
RA of node: 122.3922 deg
Eccentricity: 0.0015556
Arg of perigee: 113.1006 deg
Mean anomaly: 247.1866 deg
Mean motion: 14.79571057 rev/day
Decay rate: 6.19e-06 rev/day^2
Epoch rev: 760
Checksum: 305
/EX
SB KEPS @ AMSAT $ORB07061.D
Orbital Elements 07061.MICROS
HR AMSAT ORBITAL ELEMENTS FOR THE MICROSATS
FROM WA5QGD FORT WORTH,TX March 2, 2007
Send SUBSCRIBE KEPS/UNSUBSCRIBE KEPS to majordomo at amsat.org only
BID: ORB07061.D
TO ALL RADIO AMATEURS BT
Satellite: AO-16
Catalog number: 20439
Epoch time: 07060.46827837
Element set: 0978
Inclination: 098.1936 deg
RA of node: 060.9786 deg
Eccentricity: 0.0011373
Arg of perigee: 143.7223 deg
Mean anomaly: 216.4740 deg
Mean motion: 14.31751542 rev/day
Decay rate: 1.2e-07 rev/day^2
Epoch rev: 89313
Checksum: 311
Satellite: LO-19
Catalog number: 20442
Epoch time: 07060.45494606
Element set: 0906
Inclination: 098.1828 deg
RA of node: 070.4376 deg
Eccentricity: 0.0012364
Arg of perigee: 143.1209 deg
Mean anomaly: 217.0844 deg
Mean motion: 14.31993072 rev/day
Decay rate: 6.9e-07 rev/day^2
Epoch rev: 89327
Checksum: 307
Satellite: AO-27
Catalog number: 22825
Epoch time: 07060.45399324
Element set: 0629
Inclination: 098.3177 deg
RA of node: 035.1014 deg
Eccentricity: 0.0007818
Arg of perigee: 216.1819 deg
Mean anomaly: 143.8831 deg
Mean motion: 14.29200714 rev/day
Decay rate: 2.0e-07 rev/day^2
Epoch rev: 70010
Checksum: 277
Satellite: IO-26
Catalog number: 22826
Epoch time: 07061.84978040
Element set: 324
Inclination: 098.3122 deg
RA of node: 037.5499 deg
Eccentricity: 0.0008449
Arg of perigee: 209.2582 deg
Mean anomaly: 150.8125 deg
Mean motion: 14.29446233 rev/day
Decay rate: 4.0e-08 rev/day^2
Epoch rev: 70038
Checksum: 300
Satellite: PO-28
Catalog number: 22829
Epoch time: 07061.50792559
Element set: 604
Inclination: 098.3005 deg
RA of node: 038.4039 deg
Eccentricity: 0.0009717
Arg of perigee: 183.4298 deg
Mean anomaly: 176.6817 deg
Mean motion: 14.30144777 rev/day
Decay rate: 1.6e-07 rev/day^2
Epoch rev: 70056
Checksum: 320
Satellite: GO-32
Catalog number: 25397
Epoch time: 07060.23734676
Element set: 0243
Inclination: 098.4312 deg
RA of node: 112.1010 deg
Eccentricity: 0.0001621
Arg of perigee: 151.1389 deg
Mean anomaly: 208.9880 deg
Mean motion: 14.23121496 rev/day
Decay rate: 1.13e-06 rev/day^2
Epoch rev: 44880
Checksum: 269
Satellite: MO-46
Catalog number: 26548
Epoch time: 07060.43293127
Element set: 0735
Inclination: 064.5579 deg
RA of node: 156.0132 deg
Eccentricity: 0.0027716
Arg of perigee: 211.7516 deg
Mean anomaly: 148.1874 deg
Mean motion: 14.83104556 rev/day
Decay rate: -3.7e-07 rev/day^2
Epoch rev: 34756
Checksum: 311
Satellite: NO-44
Catalog number: 26931
Epoch time: 07060.48017819
Element set: 532
Inclination: 067.0519 deg
RA of node: 064.9348 deg
Eccentricity: 0.0006254
Arg of perigee: 278.6637 deg
Mean anomaly: 081.3723 deg
Mean motion: 14.29473207 rev/day
Decay rate: -2.29e-06 rev/day^2
Epoch rev: 28270
Checksum: 314
Satellite: SO-50
Catalog number: 27607
Epoch time: 07060.45407641
Element set: 254
Inclination: 064.5580 deg
RA of node: 052.1148 deg
Eccentricity: 0.0041726
Arg of perigee: 034.7343 deg
Mean anomaly: 325.6475 deg
Mean motion: 14.71232185 rev/day
Decay rate: 9.5e-07 rev/day^2
Epoch rev: 22527
Checksum: 284
Satellite: CO-55
Catalog number: 27844
Epoch time: 07061.60340541
Element set: 973
Inclination: 098.7216 deg
RA of node: 071.3520 deg
Eccentricity: 0.0010704
Arg of perigee: 041.8957 deg
Mean anomaly: 318.3035 deg
Mean motion: 14.20494772 rev/day
Decay rate: 6.8e-07 rev/day^2
Epoch rev: 19034
Checksum: 293
Satellite: CO-57
Catalog number: 27848
Epoch time: 07060.55376672
Element set: 0935
Inclination: 098.7202 deg
RA of node: 069.5513 deg
Eccentricity: 0.0010542
Arg of perigee: 047.3259 deg
Mean anomaly: 312.8813 deg
Mean motion: 14.20315865 rev/day
Decay rate: 4.2e-07 rev/day^2
Epoch rev: 19017
Checksum: 307
Satellite: AO-51
Catalog number: 28375
Epoch time: 07061.18650588
Element set: 760
Inclination: 098.1290 deg
RA of node: 105.9469 deg
Eccentricity: 0.0083944
Arg of perigee: 146.0169 deg
Mean anomaly: 214.6436 deg
Mean motion: 14.40556964 rev/day
Decay rate: 1.4e-07 rev/day^2
Epoch rev: 14030
Checksum: 311
Satellite: CO-56
Catalog number: 28941
Epoch time: 07061.86411306
Element set: 366
Inclination: 098.1457 deg
RA of node: 111.4082 deg
Eccentricity: 0.0240596
Arg of perigee: 288.3761 deg
Mean anomaly: 069.1426 deg
Mean motion: 15.35350329 rev/day
Decay rate: 1.8361e-04 rev/day^2
Epoch rev: 5709
Checksum: 317
Satellite: HO-59
Catalog number: 29484
Epoch time: 07060.67367615
Element set: 0211
Inclination: 098.3023 deg
RA of node: 094.7440 deg
Eccentricity: 0.0236484
Arg of perigee: 289.3304 deg
Mean anomaly: 068.2654 deg
Mean motion: 15.42817066 rev/day
Decay rate: 3.2969e-04 rev/day^2
Epoch rev: 02445
Checksum: 331
Satellite: NO-60
Catalog number: 29661
Epoch time: 07060.90950263
Element set: 0088
Inclination: 051.6412 deg
RA of node: 293.7576 deg
Eccentricity: 0.0010247
Arg of perigee: 277.5199 deg
Mean anomaly: 082.4645 deg
Mean motion: 15.90048410 rev/day
Decay rate: 8.0903e-04 rev/day^2
Epoch rev: 01125
Checksum: 303
Satellite: NO-61
Catalog number: 29667
Epoch time: 07061.85874725
Element set: 69
Inclination: 051.6338 deg
RA of node: 290.3192 deg
Eccentricity: 0.0015021
Arg of perigee: 289.2659 deg
Mean anomaly: 070.6719 deg
Mean motion: 15.84261782 rev/day
Decay rate: 1.8095e-04 rev/day^2
Epoch rev: 1112
Checksum: 324
/EX
SB KEPS @ AMSAT $ORB07061.W
Orbital Elements 07061.WEATHER
HR AMSAT ORBITAL ELEMENTS FOR WEATHER SATELLITES
FROM WA5QGD FORT WORTH,TX March 2, 2007
Send SUBSCRIBE KEPS/UNSUBSCRIBE KEPS to majordomo at amsat.org only
BID: ORB07061.W
TO ALL RADIO AMATEURS BT
Satellite: NOAA-10
Catalog number: 16969
Epoch time: 07061.11876687
Element set: 568
Inclination: 098.7534 deg
RA of node: 078.2019 deg
Eccentricity: 0.0013053
Arg of perigee: 117.3377 deg
Mean anomaly: 242.9121 deg
Mean motion: 14.27318519 rev/day
Decay rate: 7.0e-08 rev/day^2
Epoch rev: 6395
Checksum: 317
Satellite: NOAA-11
Catalog number: 19531
Epoch time: 07061.34616602
Element set: 561
Inclination: 098.8119 deg
RA of node: 151.8446 deg
Eccentricity: 0.0011495
Arg of perigee: 339.1120 deg
Mean anomaly: 020.9559 deg
Mean motion: 14.14836535 rev/day
Decay rate: -3.9e-07 rev/day^2
Epoch rev: 95104
Checksum: 292
Satellite: NOAA-12
Catalog number: 21263
Epoch time: 07061.47519273
Element set: 55
Inclination: 098.7494 deg
RA of node: 058.9087 deg
Eccentricity: 0.0013433
Arg of perigee: 059.8569 deg
Mean anomaly: 300.3950 deg
Mean motion: 14.25522706 rev/day
Decay rate: -1.18e-06 rev/day^2
Epoch rev: 82104
Checksum: 303
